Flag for India Weather past 2 weeks in Jaipur, Rajasthan, India

Now
88 °F

Haze.


Feels Like: 89 °F
Forecast: 81 / 97 °F
Wind: 7 mph from West

Location: Jaipur / Sanganer

Current Time: Sep 4, 2015 at 12:20:49 PM

Latest Report: Sep 4, 2015 at 10:00 AM


Visibility: 2 mi

Pressure: 29.92 "Hg

Humidity: 46%

Dew point: 64 °F

Location of JaipurLocation

Historic Weather in Jaipur — Graph

°F

Jaipur temperature yesterday

Maximum temperature yesterday: 99 °F (at 4:00 PM)
Minimum temperature yesterday: 79 °F (at 5:00 AM)
Average temperature yesterday: 86 °F

Past Weeks' High & Low Weather Summary

 TemperatureHumidityPressure
High99 °F (Aug 28, 3:00 PM)94% (Aug 21, 5:00 AM)29.92 "Hg (Aug 21, 5:00 AM)
Low77 °F (Aug 21, 5:00 AM)19% (Sep 3, 2:30 AM)29.62 "Hg (Aug 22, 4:00 PM)
Average87 °F61%29.70 "Hg
* Reported Aug 20 10:00 AM — Sep 4 10:00 AM, Jaipur, Weather by CustomWeather, © 2015

Note: Actual official high and low records may vary slightly from our data, if they occured in-between our weather recording intervals... More about our weather records

Advertising

Jaipur weather history for previous 24 hours

 ConditionsComfort  
Time TempWeatherWind HumidityBarometerVisibility
10:00 AM
Fri, Sep 4
88 °FHaze.7 mph46%29.92 "Hg2 mi
9:00 AM88 °FHaze.9 mph49%29.89 "Hg2 mi
8:00 AM84 °FHaze.6 mph62%29.89 "Hg2 mi
6:00 AM82 °FHaze.6 mph70%29.86 "Hg2 mi
5:00 AM82 °FHaze.3 mph70%29.83 "Hg2 mi
4:00 AM84 °FHaze.2 mph62%29.83 "Hg2 mi
3:00 AM84 °FHaze.3 mph62%29.83 "Hg2 mi
2:00 AM84 °FHaze.3 mph62%29.80 "Hg2 mi
1:00 AM84 °FHaze.2 mph62%29.83 "Hg2 mi
11:00 PM
Thu, Sep 3
86 °FHaze.3 mph55%29.83 "Hg2 mi
10:00 PM88 °FHaze.No wind52%29.83 "Hg2 mi
9:00 PM90 °FHaze.No wind49%29.80 "Hg2 mi
8:00 PM93 °FHaze.3 mph41%29.80 "Hg2 mi
5:00 PM97 °FHaze.9 mph32%29.74 "Hg2 mi
4:00 PM99 °FHaze.9 mph31%29.74 "Hg2 mi
3:00 PM97 °FHaze.7 mph34%29.77 "Hg2 mi
2:00 PM93 °FHaze.7 mph39%29.77 "Hg2 mi
1:00 PM91 °FHaze.7 mph41%29.80 "Hg2 mi
12:00 PM91 °FHaze.7 mph41%29.83 "Hg2 mi
Weather by CustomWeather, © 2015

See weather overviewHow to use our weather pages